Data supplied by UK-AIR on 21/3/2018
All Data GMT hour ending 
Status: R =Ratified P=Provisional,P*=As supplied
,,Dumbarton Roadside,,,,,,,,,,,,,,,,,,,,,,,
Date,time,"Nitric oxide",status,unit,"Nitrogen dioxide",status,unit,"Nitrogen oxides as nitrogen dioxide",status,unit
 
01-01-2017,01:00,5.91553,R,ugm-3,18.15090,R,ugm-3,27.22125,R,ugm-3
01-01-2017,02:00,9.98755,R,ugm-3,36.93165,R,ugm-3,52.24568,R,ugm-3
01-01-2017,03:00,3.89002,R,ugm-3,23.48598,R,ugm-3,29.45059,R,ugm-3
01-01-2017,04:00,4.24332,R,ugm-3,21.24692,R,ugm-3,27.75324,R,ugm-3
01-01-2017,05:00,5.81897,R,ugm-3,19.08053,R,ugm-3,28.00283,R,ugm-3
01-01-2017,06:00,2.50770,R,ugm-3,9.98182,R,ugm-3,13.82690,R,ugm-3
01-01-2017,07:00,3.05401,R,ugm-3,11.49030,R,ugm-3,16.17306,R,ugm-3
01-01-2017,08:00,2.50770,R,ugm-3,9.23355,R,ugm-3,13.07863,R,ugm-3
01-01-2017,09:00,5.17630,R,ugm-3,23.11113,R,ugm-3,31.04800,R,ugm-3
01-01-2017,10:00,5.88320,R,ugm-3,27.56773,R,ugm-3,36.58852,R,ugm-3
01-01-2017,11:00,5.27234,R,ugm-3,14.22804,R,ugm-3,22.31218,R,ugm-3
01-01-2017,12:00,5.27203,R,ugm-3,10.03584,R,ugm-3,18.11950,R,ugm-3
01-01-2017,13:00,5.88320,R,ugm-3,9.19865,R,ugm-3,18.21943,R,ugm-3
01-01-2017,14:00,7.16917,R,ugm-3,14.36479,R,ugm-3,25.35736,R,ugm-3
01-01-2017,15:00,6.78375,R,ugm-3,11.06238,R,ugm-3,21.46399,R,ugm-3
01-01-2017,16:00,7.78003,R,ugm-3,12.97870,R,ugm-3,24.90792,R,ugm-3
01-01-2017,17:00,6.17258,R,ugm-3,11.20103,R,ugm-3,20.66552,R,ugm-3
01-01-2017,18:00,6.59042,R,ugm-3,13.65525,R,ugm-3,23.76042,R,ugm-3
01-01-2017,19:00,7.00858,R,ugm-3,15.45969,R,ugm-3,26.20603,R,ugm-3
01-01-2017,20:00,10.31954,R,ugm-3,29.40086,R,ugm-3,45.22393,R,ugm-3
01-01-2017,21:00,5.17598,R,ugm-3,9.38464,R,ugm-3,17.32103,R,ugm-3
01-01-2017,22:00,6.14046,R,ugm-3,15.29331,R,ugm-3,24.70854,R,ugm-3
01-01-2017,23:00,4.75814,R,ugm-3,11.22303,R,ugm-3,18.51874,R,ugm-3
01-01-2017,24:00,4.69390,R,ugm-3,17.81063,R,ugm-3,25.00785,R,ugm-3
02-01-2017,01:00,15.68896,R,ugm-3,22.99845,R,ugm-3,47.05451,R,ugm-3
02-01-2017,02:00,9.08741,R,ugm-3,29.19431,R,ugm-3,43.12815,R,ugm-3
02-01-2017,03:00,6.65466,R,ugm-3,22.29162,R,ugm-3,32.49529,R,ugm-3
02-01-2017,04:00,6.10803,R,ugm-3,24.87684,R,ugm-3,34.24236,R,ugm-3
02-01-2017,05:00,4.75814,R,ugm-3,15.46591,R,ugm-3,22.76162,R,ugm-3
02-01-2017,06:00,13.63143,R,ugm-3,28.66598,R,ugm-3,49.56722,R,ugm-3
02-01-2017,07:00,4.62967,R,ugm-3,19.25696,R,ugm-3,26.35568,R,ugm-3
02-01-2017,08:00,14.33834,R,ugm-3,30.07789,R,ugm-3,52.06303,R,ugm-3
02-01-2017,09:00,22.11900,R,ugm-3,40.41017,R,ugm-3,74.32549,R,ugm-3
02-01-2017,10:00,28.90181,R,ugm-3,45.48451,R,ugm-3,89.80000,R,ugm-3
02-01-2017,11:00,18.93589,R,ugm-3,31.96266,R,ugm-3,60.99728,R,ugm-3
02-01-2017,12:00,31.28104,R,ugm-3,40.48763,R,ugm-3,88.45121,R,ugm-3
02-01-2017,13:00,15.49583,R,ugm-3,23.11113,R,ugm-3,46.87107,R,ugm-3
02-01-2017,14:00,15.33555,R,ugm-3,27.35066,R,ugm-3,50.86485,R,ugm-3
02-01-2017,15:00,27.10165,R,ugm-3,38.85961,R,ugm-3,80.41489,R,ugm-3
02-01-2017,16:00,29.35240,R,ugm-3,47.98797,R,ugm-3,92.99436,R,ugm-3
02-01-2017,17:00,44.17313,R,ugm-3,63.99799,R,ugm-3,131.72918,R,ugm-3
02-01-2017,18:00,28.93393,R,ugm-3,51.02502,R,ugm-3,95.38976,R,ugm-3
02-01-2017,19:00,20.89695,R,ugm-3,41.83450,R,ugm-3,73.87605,R,ugm-3
02-01-2017,20:00,17.71416,R,ugm-3,39.12736,R,ugm-3,66.28868,R,ugm-3
02-01-2017,21:00,8.32666,R,ugm-3,20.82617,R,ugm-3,33.59354,R,ugm-3
02-01-2017,22:00,5.43324,R,ugm-3,11.63565,R,ugm-3,19.96650,R,ugm-3
02-01-2017,23:00,7.29795,R,ugm-3,16.51348,R,ugm-3,27.70352,R,ugm-3
02-01-2017,24:00,3.66488,R,ugm-3,8.00764,R,ugm-3,13.62704,R,ugm-3
03-01-2017,01:00,2.10045,R,ugm-3,4.89919,R,ugm-3,8.11984,R,ugm-3
03-01-2017,02:00,2.01481,R,ugm-3,7.42687,R,ugm-3,10.51620,R,ugm-3
03-01-2017,03:00,4.17970,R,ugm-3,6.71957,R,ugm-3,13.12836,R,ugm-3
03-01-2017,04:00,1.41475,R,ugm-3,5.46784,R,ugm-3,7.63709,R,ugm-3
03-01-2017,05:00,1.60746,R,ugm-3,2.87688,R,ugm-3,5.34161,R,ugm-3
03-01-2017,06:00,2.82888,R,ugm-3,6.64403,R,ugm-3,10.98158,R,ugm-3
03-01-2017,07:00,4.56512,R,ugm-3,10.96962,R,ugm-3,17.96937,R,ugm-3
03-01-2017,08:00,9.35569,R,ugm-3,18.79892,R,ugm-3,33.14410,R,ugm-3
03-01-2017,09:00,5.20841,R,ugm-3,9.98373,R,ugm-3,17.96985,R,ugm-3
03-01-2017,10:00,5.01539,R,ugm-3,10.03011,R,ugm-3,17.72027,R,ugm-3
03-01-2017,11:00,14.04896,R,ugm-3,18.99017,R,ugm-3,40.53161,R,ugm-3
03-01-2017,12:00,13.82414,R,ugm-3,19.48455,R,ugm-3,40.68127,R,ugm-3
03-01-2017,13:00,11.70217,R,ugm-3,16.89837,R,ugm-3,34.84145,R,ugm-3
03-01-2017,14:00,14.37046,R,ugm-3,25.68535,R,ugm-3,47.71974,R,ugm-3
03-01-2017,15:00,18.96769,R,ugm-3,29.26890,R,ugm-3,58.35229,R,ugm-3
03-01-2017,16:00,19.57887,R,ugm-3,28.23185,R,ugm-3,58.25236,R,ugm-3
03-01-2017,17:00,20.06095,R,ugm-3,28.14148,R,ugm-3,58.90118,R,ugm-3
03-01-2017,18:00,18.93589,R,ugm-3,29.56677,R,ugm-3,58.60139,R,ugm-3
03-01-2017,19:00,15.91430,R,ugm-3,30.70567,R,ugm-3,55.10725,R,ugm-3
03-01-2017,20:00,9.32326,R,ugm-3,19.19815,R,ugm-3,33.49361,R,ugm-3
03-01-2017,21:00,7.58733,R,ugm-3,14.42216,R,ugm-3,26.05590,R,ugm-3
03-01-2017,22:00,8.13364,R,ugm-3,12.33706,R,ugm-3,24.80847,R,ugm-3
03-01-2017,23:00,3.66519,R,ugm-3,5.46162,R,ugm-3,11.08150,R,ugm-3
03-01-2017,24:00,2.34680,R,ugm-3,3.34018,R,ugm-3,6.93855,R,ugm-3
04-01-2017,01:00,1.15874,R,ugm-3,2.55319,R,ugm-3,4.32990,R,ugm-3
04-01-2017,02:00,1.28680,R,ugm-3,5.75471,R,ugm-3,7.72778,R,ugm-3
04-01-2017,03:00,0.98661,R,ugm-3,3.41764,R,ugm-3,4.93043,R,ugm-3
04-01-2017,04:00,2.92866,R,ugm-3,4.35333,R,ugm-3,8.84388,R,ugm-3
04-01-2017,05:00,3.37894,R,ugm-3,8.20893,R,ugm-3,13.38989,R,ugm-3
04-01-2017,06:00,9.01050,R,ugm-3,31.55147,R,ugm-3,45.36737,R,ugm-3
04-01-2017,07:00,44.82703,R,ugm-3,60.37284,R,ugm-3,129.10666,R,ugm-3
04-01-2017,08:00,120.99808,R,ugm-3,86.07684,R,ugm-3,271.60464,R,ugm-3
04-01-2017,09:00,104.29611,R,ugm-3,86.65394,R,ugm-3,246.57241,R,ugm-3
04-01-2017,10:00,151.21517,R,ugm-3,86.71084,R,ugm-3,318.57086,R,ugm-3
04-01-2017,11:00,186.00268,R,ugm-3,96.02519,R,ugm-3,381.22532,R,ugm-3
04-01-2017,12:00,46.91906,R,ugm-3,58.61478,R,ugm-3,130.55633,R,ugm-3
04-01-2017,13:00,26.38788,R,ugm-3,40.73051,R,ugm-3,81.19136,R,ugm-3
04-01-2017,14:00,50.36223,R,ugm-3,53.23587,R,ugm-3,130.45688,R,ugm-3
04-01-2017,15:00,57.40979,R,ugm-3,59.26694,R,ugm-3,147.29406,R,ugm-3
04-01-2017,16:00,104.00705,R,ugm-3,88.29630,R,ugm-3,247.77155,R,ugm-3
04-01-2017,17:00,82.67104,R,ugm-3,76.59323,R,ugm-3,203.35373,R,ugm-3
04-01-2017,18:00,65.90546,R,ugm-3,77.41800,R,ugm-3,178.47163,R,ugm-3
04-01-2017,19:00,76.01015,R,ugm-3,86.75626,R,ugm-3,203.30353,R,ugm-3
04-01-2017,20:00,85.14912,R,ugm-3,87.03405,R,ugm-3,217.59421,R,ugm-3
04-01-2017,21:00,85.56759,R,ugm-3,80.14618,R,ugm-3,211.34798,R,ugm-3
04-01-2017,22:00,55.76865,R,ugm-3,67.32908,R,ugm-3,152.83983,R,ugm-3
04-01-2017,23:00,47.78812,R,ugm-3,66.22557,R,ugm-3,139.49966,R,ugm-3
04-01-2017,24:00,25.10067,R,ugm-3,58.74292,R,ugm-3,97.23007,R,ugm-3
05-01-2017,01:00,27.80356,R,ugm-3,53.43270,R,ugm-3,96.06424,R,ugm-3
05-01-2017,02:00,18.53571,R,ugm-3,54.71917,R,ugm-3,83.14020,R,ugm-3
05-01-2017,03:00,27.06392,R,ugm-3,46.88924,R,ugm-3,88.38667,R,ugm-3
05-01-2017,04:00,15.80017,R,ugm-3,41.82590,R,ugm-3,66.05249,R,ugm-3
05-01-2017,05:00,37.71523,R,ugm-3,52.34082,R,ugm-3,110.17004,R,ugm-3
05-01-2017,06:00,47.17663,R,ugm-3,52.42402,R,ugm-3,124.76050,R,ugm-3
05-01-2017,07:00,77.49038,R,ugm-3,60.50385,R,ugm-3,179.32078,R,ugm-3
05-01-2017,08:00,123.15404,R,ugm-3,70.17967,R,ugm-3,259.01322,R,ugm-3
05-01-2017,09:00,196.36431,R,ugm-3,77.29034,R,ugm-3,378.37808,R,ugm-3
05-01-2017,10:00,128.30320,R,ugm-3,69.42949,R,ugm-3,266.15832,R,ugm-3
05-01-2017,11:00,106.54904,R,ugm-3,66.01185,R,ugm-3,229.38477,R,ugm-3
05-01-2017,12:00,74.56172,R,ugm-3,59.94827,R,ugm-3,174.27465,R,ugm-3
05-01-2017,13:00,100.24176,R,ugm-3,68.63867,R,ugm-3,222.34056,R,ugm-3
05-01-2017,14:00,102.71952,R,ugm-3,73.18277,R,ugm-3,230.68384,R,ugm-3
05-01-2017,15:00,130.43806,R,ugm-3,82.72838,R,ugm-3,282.73061,R,ugm-3
05-01-2017,16:00,30.63577,R,ugm-3,36.16665,R,ugm-3,83.14084,R,ugm-3
05-01-2017,17:00,12.32488,R,ugm-3,46.25477,R,ugm-3,65.15266,R,ugm-3
05-01-2017,18:00,22.07565,R,ugm-3,50.29014,R,ugm-3,84.13900,R,ugm-3
05-01-2017,19:00,10.81253,R,ugm-3,33.93492,R,ugm-3,50.51391,R,ugm-3
05-01-2017,20:00,6.37183,R,ugm-3,33.34874,R,ugm-3,43.11875,R,ugm-3
05-01-2017,21:00,2.15596,R,ugm-3,32.46851,R,ugm-3,35.77427,R,ugm-3
05-01-2017,22:00,3.34651,R,ugm-3,24.99733,R,ugm-3,30.12857,R,ugm-3
05-01-2017,23:00,11.61704,R,ugm-3,32.50198,R,ugm-3,50.31453,R,ugm-3
05-01-2017,24:00,3.05713,R,ugm-3,19.74465,R,ugm-3,24.43219,R,ugm-3
06-01-2017,01:00,8.51158,R,ugm-3,33.55991,R,ugm-3,46.61081,R,ugm-3
06-01-2017,02:00,1.46184,R,ugm-3,14.22900,R,ugm-3,16.47045,R,ugm-3
06-01-2017,03:00,2.54730,R,ugm-3,16.64927,R,ugm-3,20.55507,R,ugm-3
06-01-2017,04:00,3.77246,R,ugm-3,16.07122,R,ugm-3,21.85557,R,ugm-3
06-01-2017,05:00,0.90273,R,ugm-3,4.66746,R,ugm-3,6.05163,R,ugm-3
06-01-2017,06:00,0.93516,R,ugm-3,3.86708,R,ugm-3,5.30097,R,ugm-3
06-01-2017,07:00,1.06395,R,ugm-3,4.57040,R,ugm-3,6.20176,R,ugm-3
06-01-2017,08:00,1.03183,R,ugm-3,5.61940,R,ugm-3,7.20152,R,ugm-3
06-01-2017,09:00,1.12850,R,ugm-3,6.57183,R,ugm-3,8.30216,R,ugm-3
06-01-2017,10:00,1.38669,R,ugm-3,5.92588,R,ugm-3,8.05210,R,ugm-3
06-01-2017,11:00,4.67519,R,ugm-3,9.63518,R,ugm-3,16.80370,R,ugm-3
06-01-2017,12:00,1.86970,R,ugm-3,13.78673,R,ugm-3,16.65357,R,ugm-3
06-01-2017,13:00,4.80429,R,ugm-3,23.29043,R,ugm-3,30.65690,R,ugm-3
06-01-2017,14:00,6.15823,R,ugm-3,24.56558,R,ugm-3,34.00808,R,ugm-3
06-01-2017,15:00,10.99464,R,ugm-3,33.60358,R,ugm-3,50.46179,R,ugm-3
06-01-2017,16:00,42.23826,R,ugm-3,54.81368,R,ugm-3,119.57811,R,ugm-3
06-01-2017,17:00,26.21295,R,ugm-3,45.32816,R,ugm-3,85.52078,R,ugm-3
06-01-2017,18:00,52.87772,R,ugm-3,54.60427,R,ugm-3,135.68231,R,ugm-3
06-01-2017,19:00,140.99729,R,ugm-3,81.37783,R,ugm-3,297.57066,R,ugm-3
06-01-2017,20:00,84.18558,R,ugm-3,70.56456,R,ugm-3,199.64731,R,ugm-3
06-01-2017,21:00,79.31705,R,ugm-3,68.32741,R,ugm-3,189.94520,R,ugm-3
06-01-2017,22:00,94.47113,R,ugm-3,69.19712,R,ugm-3,214.05083,R,ugm-3
06-01-2017,23:00,52.68439,R,ugm-3,54.85050,R,ugm-3,135.63211,R,ugm-3
06-01-2017,24:00,36.72457,R,ugm-3,46.56459,R,ugm-3,102.87481,R,ugm-3
07-01-2017,01:00,35.06160,R,ugm-3,46.99714,R,ugm-3,100.75751,R,ugm-3
07-01-2017,02:00,18.47875,R,ugm-3,43.74971,R,ugm-3,72.08340,R,ugm-3
07-01-2017,03:00,21.38589,R,ugm-3,47.97793,R,ugm-3,80.76918,R,ugm-3
07-01-2017,04:00,16.92773,R,ugm-3,43.71114,R,ugm-3,69.66664,R,ugm-3
07-01-2017,05:00,8.56084,R,ugm-3,35.58541,R,ugm-3,48.71185,R,ugm-3
07-01-2017,06:00,7.59138,R,ugm-3,27.21966,R,ugm-3,38.85961,R,ugm-3
07-01-2017,07:00,19.22152,R,ugm-3,41.04368,R,ugm-3,70.51627,R,ugm-3
07-01-2017,08:00,16.34649,R,ugm-3,38.10083,R,ugm-3,63.16509,R,ugm-3
07-01-2017,09:00,20.90163,R,ugm-3,47.57009,R,ugm-3,79.61881,R,ugm-3
07-01-2017,10:00,49.03885,R,ugm-3,65.14166,R,ugm-3,140.33351,R,ugm-3
07-01-2017,11:00,49.78224,R,ugm-3,63.20191,R,ugm-3,139.53361,R,ugm-3
07-01-2017,12:00,28.13784,R,ugm-3,48.17731,R,ugm-3,91.32140,R,ugm-3
07-01-2017,13:00,27.94389,R,ugm-3,43.72358,R,ugm-3,86.57027,R,ugm-3
07-01-2017,14:00,5.68582,R,ugm-3,26.39059,R,ugm-3,35.10872,R,ugm-3
07-01-2017,15:00,18.41389,R,ugm-3,53.13547,R,ugm-3,81.36970,R,ugm-3
07-01-2017,16:00,2.29410,R,ugm-3,25.23878,R,ugm-3,28.75635,R,ugm-3
07-01-2017,17:00,4.16754,R,ugm-3,33.11924,R,ugm-3,39.50938,R,ugm-3
07-01-2017,18:00,32.78965,R,ugm-3,60.54975,R,ugm-3,110.82651,R,ugm-3
07-01-2017,19:00,57.43817,R,ugm-3,72.76728,R,ugm-3,160.83790,R,ugm-3
07-01-2017,20:00,12.69596,R,ugm-3,24.84338,R,ugm-3,44.31023,R,ugm-3
07-01-2017,21:00,11.69437,R,ugm-3,26.47904,R,ugm-3,44.41016,R,ugm-3
07-01-2017,22:00,12.14652,R,ugm-3,25.98657,R,ugm-3,44.61098,R,ugm-3
07-01-2017,23:00,8.20536,R,ugm-3,20.12667,R,ugm-3,32.70805,R,ugm-3
07-01-2017,24:00,4.68424,R,ugm-3,13.77287,R,ugm-3,20.95526,R,ugm-3
08-01-2017,01:00,3.58225,R,ugm-3,10.32622,R,ugm-3,15.81892,R,ugm-3
08-01-2017,02:00,4.40214,R,ugm-3,17.61285,R,ugm-3,24.36270,R,ugm-3
08-01-2017,03:00,1.55351,R,ugm-3,4.57613,R,ugm-3,6.95815,R,ugm-3
08-01-2017,04:00,1.68292,R,ugm-3,3.57685,R,ugm-3,6.15729,R,ugm-3
08-01-2017,05:00,2.39544,R,ugm-3,7.94070,R,ugm-3,11.61366,R,ugm-3
08-01-2017,06:00,4.49901,R,ugm-3,10.22231,R,ugm-3,17.12070,R,ugm-3
08-01-2017,07:00,1.81295,R,ugm-3,6.73200,R,ugm-3,9.51182,R,ugm-3
08-01-2017,08:00,13.01183,R,ugm-3,20.84768,R,ugm-3,40.79888,R,ugm-3
08-01-2017,09:00,2.68668,R,ugm-3,9.09681,R,ugm-3,13.21633,R,ugm-3
08-01-2017,10:00,3.26886,R,ugm-3,12.80945,R,ugm-3,17.82163,R,ugm-3
08-01-2017,11:00,15.56849,R,ugm-3,27.73986,R,ugm-3,51.61120,R,ugm-3
08-01-2017,12:00,1.71566,R,ugm-3,9.68394,R,ugm-3,12.31459,R,ugm-3
08-01-2017,13:00,1.32713,R,ugm-3,9.52855,R,ugm-3,11.56345,R,ugm-3
08-01-2017,14:00,2.42756,R,ugm-3,10.94476,R,ugm-3,14.66696,R,ugm-3
08-01-2017,15:00,6.99143,R,ugm-3,13.25841,R,ugm-3,23.97845,R,ugm-3
08-01-2017,16:00,2.23360,R,ugm-3,9.89097,R,ugm-3,13.31578,R,ugm-3
08-01-2017,17:00,1.19741,R,ugm-3,8.37579,R,ugm-3,10.21179,R,ugm-3
08-01-2017,18:00,1.13286,R,ugm-3,6.37245,R,ugm-3,8.10948,R,ugm-3
08-01-2017,19:00,0.87405,R,ugm-3,7.57063,R,ugm-3,8.91082,R,ugm-3
08-01-2017,20:00,1.16529,R,ugm-3,5.22160,R,ugm-3,7.00836,R,ugm-3
08-01-2017,21:00,0.67978,R,ugm-3,3.11307,R,ugm-3,4.15538,R,ugm-3
08-01-2017,22:00,1.13255,R,ugm-3,2.46856,R,ugm-3,4.20511,R,ugm-3
08-01-2017,23:00,0.90616,R,ugm-3,2.46521,R,ugm-3,3.85464,R,ugm-3
08-01-2017,24:00,0.71221,R,ugm-3,2.41214,R,ugm-3,3.50418,R,ugm-3
09-01-2017,01:00,0.73508,R,ugm-3,2.21021,R,ugm-3,3.33731,R,ugm-3
09-01-2017,02:00,0.64860,R,ugm-3,7.21523,R,ugm-3,8.20973,R,ugm-3
09-01-2017,03:00,1.07018,R,ugm-3,3.96557,R,ugm-3,5.60649,R,ugm-3
09-01-2017,04:00,0.48645,R,ugm-3,2.10710,R,ugm-3,2.85297,R,ugm-3
09-01-2017,05:00,0.94046,R,ugm-3,1.76189,R,ugm-3,3.20392,R,ugm-3
09-01-2017,06:00,0.97289,R,ugm-3,1.06144,R,ugm-3,2.55319,R,ugm-3
09-01-2017,07:00,2.59438,R,ugm-3,3.18049,R,ugm-3,7.15849,R,ugm-3
09-01-2017,08:00,4.83204,R,ugm-3,7.55868,R,ugm-3,14.96770,R,ugm-3
09-01-2017,09:00,5.99951,R,ugm-3,14.72912,R,ugm-3,23.92824,R,ugm-3
09-01-2017,10:00,3.59971,R,ugm-3,11.45062,R,ugm-3,16.97009,R,ugm-3
09-01-2017,11:00,2.72410,R,ugm-3,6.28591,R,ugm-3,10.46281,R,ugm-3
09-01-2017,12:00,3.14569,R,ugm-3,6.28926,R,ugm-3,11.11258,R,ugm-3
09-01-2017,13:00,5.51307,R,ugm-3,11.07051,R,ugm-3,19.52376,R,ugm-3
09-01-2017,14:00,1.32962,R,ugm-3,2.56705,R,ugm-3,4.60578,R,ugm-3
09-01-2017,15:00,3.24298,R,ugm-3,5.23929,R,ugm-3,10.21179,R,ugm-3
09-01-2017,16:00,2.14037,R,ugm-3,4.62729,R,ugm-3,7.90914,R,ugm-3
09-01-2017,17:00,2.30252,R,ugm-3,4.32942,R,ugm-3,7.85990,R,ugm-3
09-01-2017,18:00,1.84850,R,ugm-3,4.42457,R,ugm-3,7.25889,R,ugm-3
09-01-2017,19:00,1.97822,R,ugm-3,1.87234,R,ugm-3,4.90556,R,ugm-3
09-01-2017,20:00,2.17280,R,ugm-3,2.57518,R,ugm-3,5.90676,R,ugm-3
09-01-2017,21:00,6.74540,R,ugm-3,10.98205,R,ugm-3,21.32485,R,ugm-3
09-01-2017,22:00,10.21539,R,ugm-3,16.07456,R,ugm-3,31.73794,R,ugm-3
09-01-2017,23:00,4.24830,R,ugm-3,6.00143,R,ugm-3,12.51540,R,ugm-3
09-01-2017,24:00,1.32962,R,ugm-3,3.06717,R,ugm-3,5.10590,R,ugm-3
10-01-2017,01:00,1.81981,R,ugm-3,3.62355,R,ugm-3,6.41389,R,ugm-3
10-01-2017,02:00,2.12249,R,ugm-3,6.76706,R,ugm-3,10.02150,R,ugm-3
10-01-2017,03:00,1.91710,R,ugm-3,6.53071,R,ugm-3,9.47022,R,ugm-3
10-01-2017,04:00,1.00720,R,ugm-3,4.41883,R,ugm-3,5.96318,R,ugm-3
10-01-2017,05:00,2.17716,R,ugm-3,2.82476,R,ugm-3,6.16303,R,ugm-3
10-01-2017,06:00,2.56726,R,ugm-3,5.18288,R,ugm-3,9.11928,R,ugm-3
10-01-2017,07:00,12.08696,R,ugm-3,21.95359,R,ugm-3,40.48667,R,ugm-3
10-01-2017,08:00,16.92836,R,ugm-3,27.70830,R,ugm-3,53.66475,R,ugm-3
10-01-2017,09:00,21.41240,R,ugm-3,29.65188,R,ugm-3,62.48377,R,ugm-3
10-01-2017,10:00,16.01876,R,ugm-3,22.13814,R,ugm-3,46.69990,R,ugm-3
10-01-2017,11:00,10.88488,R,ugm-3,19.88904,R,ugm-3,36.57895,R,ugm-3
10-01-2017,12:00,22.19227,R,ugm-3,37.12497,R,ugm-3,71.15265,R,ugm-3
10-01-2017,13:00,2.72940,R,ugm-3,8.44225,R,ugm-3,12.62728,R,ugm-3
10-01-2017,14:00,6.92064,R,ugm-3,12.78841,R,ugm-3,23.39992,R,ugm-3
10-01-2017,15:00,12.21699,R,ugm-3,20.95287,R,ugm-3,39.68533,R,ugm-3
10-01-2017,16:00,11.20980,R,ugm-3,19.94116,R,ugm-3,37.12928,R,ugm-3
10-01-2017,17:00,11.92481,R,ugm-3,21.80107,R,ugm-3,40.08552,R,ugm-3
10-01-2017,18:00,24.46610,R,ugm-3,42.35709,R,ugm-3,79.87126,R,ugm-3
10-01-2017,19:00,8.67560,R,ugm-3,20.42024,R,ugm-3,33.72263,R,ugm-3
10-01-2017,20:00,1.62461,R,ugm-3,5.37556,R,ugm-3,7.86659,R,ugm-3
10-01-2017,21:00,1.36486,R,ugm-3,2.41692,R,ugm-3,4.50968,R,ugm-3
10-01-2017,22:00,2.37174,R,ugm-3,6.73535,R,ugm-3,10.37197,R,ugm-3
10-01-2017,23:00,1.62492,R,ugm-3,2.91991,R,ugm-3,5.41142,R,ugm-3
10-01-2017,24:00,0.64953,R,ugm-3,0.60770,R,ugm-3,1.60363,R,ugm-3
11-01-2017,01:00,1.04150,R,ugm-3,1.14240,R,ugm-3,2.73934,R,ugm-3
11-01-2017,02:00,0.65109,R,ugm-3,5.61574,R,ugm-3,6.61406,R,ugm-3
11-01-2017,03:00,1.49738,R,ugm-3,1.81257,R,ugm-3,4.10853,R,ugm-3
11-01-2017,04:00,1.00938,R,ugm-3,1.90963,R,ugm-3,3.45732,R,ugm-3
11-01-2017,05:00,1.04181,R,ugm-3,1.65957,R,ugm-3,3.25699,R,ugm-3
11-01-2017,06:00,3.19028,R,ugm-3,3.17523,R,ugm-3,8.06693,R,ugm-3
11-01-2017,07:00,6.67337,R,ugm-3,7.60601,R,ugm-3,17.83837,R,ugm-3
11-01-2017,08:00,10.71088,R,ugm-3,13.89192,R,ugm-3,30.31504,R,ugm-3
11-01-2017,09:00,18.62125,R,ugm-3,16.99543,R,ugm-3,45.54762,R,ugm-3
11-01-2017,10:00,12.82692,R,ugm-3,13.75422,R,ugm-3,33.42189,R,ugm-3
11-01-2017,11:00,13.34736,R,ugm-3,13.75757,R,ugm-3,34.22323,R,ugm-3
11-01-2017,12:00,15.46371,R,ugm-3,17.47738,R,ugm-3,41.18808,R,ugm-3
11-01-2017,13:00,14.12848,R,ugm-3,18.07169,R,ugm-3,39.73506,R,ugm-3
11-01-2017,14:00,15.43066,R,ugm-3,21.93781,R,ugm-3,45.59783,R,ugm-3
11-01-2017,15:00,16.31001,R,ugm-3,18.88594,R,ugm-3,43.89427,R,ugm-3
11-01-2017,16:00,15.72378,R,ugm-3,20.73724,R,ugm-3,44.84669,R,ugm-3
11-01-2017,17:00,15.00751,R,ugm-3,18.77836,R,ugm-3,41.78956,R,ugm-3
11-01-2017,18:00,17.51428,R,ugm-3,22.65165,R,ugm-3,49.50650,R,ugm-3
11-01-2017,19:00,13.44527,R,ugm-3,18.71859,R,ugm-3,39.33439,R,ugm-3
11-01-2017,20:00,10.58022,R,ugm-3,15.34494,R,ugm-3,31.56773,R,ugm-3
11-01-2017,21:00,8.49692,R,ugm-3,8.36719,R,ugm-3,21.39562,R,ugm-3
11-01-2017,22:00,4.00415,R,ugm-3,8.24096,R,ugm-3,14.38057,R,ugm-3
11-01-2017,23:00,2.73471,R,ugm-3,4.87640,R,ugm-3,9.06955,R,ugm-3
11-01-2017,24:00,1.82324,R,ugm-3,2.36528,R,ugm-3,5.16088,R,ugm-3
12-01-2017,01:00,1.87012,R,ugm-3,2.61630,R,ugm-3,5.48377,R,ugm-3
12-01-2017,02:00,1.26102,R,ugm-3,5.48951,R,ugm-3,7.42305,R,ugm-3
12-01-2017,03:00,4.04468,R,ugm-3,5.53478,R,ugm-3,11.73653,R,ugm-3
12-01-2017,04:00,1.92458,R,ugm-3,3.71933,R,ugm-3,6.67032,R,ugm-3
12-01-2017,05:00,1.63085,R,ugm-3,4.77169,R,ugm-3,7.27228,R,ugm-3
12-01-2017,06:00,3.16378,R,ugm-3,4.92899,R,ugm-3,9.78005,R,ugm-3
12-01-2017,07:00,10.11155,R,ugm-3,21.35976,R,ugm-3,36.86392,R,ugm-3
12-01-2017,08:00,21.75572,R,ugm-3,36.65880,R,ugm-3,70.01710,R,ugm-3
12-01-2017,09:00,44.39172,R,ugm-3,45.38458,R,ugm-3,113.45093,R,ugm-3
12-01-2017,10:00,15.13443,R,ugm-3,25.14412,R,ugm-3,48.34991,R,ugm-3
12-01-2017,11:00,22.24466,R,ugm-3,36.10943,R,ugm-3,70.21744,R,ugm-3
12-01-2017,12:00,4.66428,R,ugm-3,9.95122,R,ugm-3,17.10301,R,ugm-3
12-01-2017,13:00,18.46129,R,ugm-3,28.82042,R,ugm-3,57.12733,R,ugm-3
12-01-2017,14:00,34.24774,R,ugm-3,45.89235,R,ugm-3,98.40482,R,ugm-3
12-01-2017,15:00,45.69577,R,ugm-3,53.06518,R,ugm-3,123.13105,R,ugm-3
12-01-2017,16:00,118.04073,R,ugm-3,104.69121,R,ugm-3,285.68447,R,ugm-3
12-01-2017,17:00,44.94583,R,ugm-3,62.54162,R,ugm-3,131.45760,R,ugm-3
12-01-2017,18:00,96.61118,R,ugm-3,91.80813,R,ugm-3,239.94321,R,ugm-3
12-01-2017,19:00,61.35219,R,ugm-3,76.90736,R,ugm-3,170.97941,R,ugm-3
12-01-2017,20:00,33.23680,R,ugm-3,57.77423,R,ugm-3,108.73662,R,ugm-3
12-01-2017,21:00,12.19891,R,ugm-3,30.14674,R,ugm-3,48.85147,R,ugm-3
12-01-2017,22:00,20.97273,R,ugm-3,32.04107,R,ugm-3,64.19880,R,ugm-3
12-01-2017,23:00,8.74139,R,ugm-3,16.38869,R,ugm-3,29.79197,R,ugm-3
12-01-2017,24:00,3.00100,R,ugm-3,7.13458,R,ugm-3,11.73606,R,ugm-3
13-01-2017,01:00,3.52903,R,ugm-3,2.88150,R,ugm-3,8.29260,R,ugm-3
13-01-2017,02:00,1.65600,R,ugm-3,6.02119,R,ugm-3,8.56035,R,ugm-3
13-01-2017,03:00,2.05867,R,ugm-3,2.56084,R,ugm-3,5.71742,R,ugm-3
13-01-2017,04:00,0.98038,R,ugm-3,1.65670,R,ugm-3,3.15993,R,ugm-3
13-01-2017,05:00,1.40508,R,ugm-3,2.40975,R,ugm-3,4.56418,R,ugm-3
13-01-2017,06:00,2.90839,R,ugm-3,5.22065,R,ugm-3,9.68012,R,ugm-3
13-01-2017,07:00,7.32009,R,ugm-3,11.34543,R,ugm-3,22.56941,R,ugm-3
13-01-2017,08:00,14.44405,R,ugm-3,19.93351,R,ugm-3,42.08074,R,ugm-3
13-01-2017,09:00,23.30019,R,ugm-3,28.52255,R,ugm-3,64.24900,R,ugm-3
13-01-2017,10:00,25.65291,R,ugm-3,30.03151,R,ugm-3,69.36542,R,ugm-3
13-01-2017,11:00,26.89522,R,ugm-3,30.58374,R,ugm-3,71.82250,R,ugm-3
13-01-2017,12:00,29.86909,R,ugm-3,30.43744,R,ugm-3,76.23608,R,ugm-3
13-01-2017,13:00,37.81003,R,ugm-3,43.38937,R,ugm-3,101.36393,R,ugm-3
13-01-2017,14:00,29.64021,R,ugm-3,37.70924,R,ugm-3,83.15693,R,ugm-3
13-01-2017,15:00,35.62008,R,ugm-3,30.59713,R,ugm-3,85.21383,R,ugm-3
13-01-2017,16:00,37.77698,R,ugm-3,45.34538,R,ugm-3,103.26926,R,ugm-3
13-01-2017,17:00,47.45041,R,ugm-3,57.99895,R,ugm-3,130.75523,R,ugm-3
13-01-2017,18:00,75.35844,R,ugm-3,78.25185,R,ugm-3,193.79984,R,ugm-3
13-01-2017,19:00,91.69807,R,ugm-3,90.31351,R,ugm-3,230.91525,R,ugm-3
13-01-2017,20:00,74.34532,R,ugm-3,84.21981,R,ugm-3,198.21437,R,ugm-3
13-01-2017,21:00,22.05850,R,ugm-3,40.50771,R,ugm-3,74.33027,R,ugm-3
13-01-2017,22:00,20.94747,R,ugm-3,42.81323,R,ugm-3,74.93223,R,ugm-3
13-01-2017,23:00,6.69925,R,ugm-3,17.36311,R,ugm-3,27.63515,R,ugm-3
13-01-2017,24:00,4.08491,R,ugm-3,12.14342,R,ugm-3,18.40686,R,ugm-3
14-01-2017,01:00,3.05589,R,ugm-3,5.22113,R,ugm-3,9.90675,R,ugm-3
14-01-2017,02:00,2.75030,R,ugm-3,10.24144,R,ugm-3,14.45850,R,ugm-3
14-01-2017,03:00,2.97949,R,ugm-3,12.70139,R,ugm-3,17.26988,R,ugm-3
14-01-2017,04:00,3.37239,R,ugm-3,9.58880,R,ugm-3,14.75972,R,ugm-3
14-01-2017,05:00,3.47061,R,ugm-3,17.21967,R,ugm-3,22.54120,R,ugm-3
14-01-2017,06:00,7.13767,R,ugm-3,25.30238,R,ugm-3,36.24666,R,ugm-3
14-01-2017,07:00,14.07890,R,ugm-3,27.21009,R,ugm-3,48.79744,R,ugm-3
14-01-2017,08:00,15.45405,R,ugm-3,19.98084,R,ugm-3,43.67672,R,ugm-3
14-01-2017,09:00,31.82486,R,ugm-3,52.11084,R,ugm-3,100.90828,R,ugm-3
14-01-2017,10:00,48.06471,R,ugm-3,59.28989,R,ugm-3,132.98808,R,ugm-3
14-01-2017,11:00,44.10297,R,ugm-3,50.85577,R,ugm-3,118.47938,R,ugm-3
14-01-2017,12:00,34.31322,R,ugm-3,43.12448,R,ugm-3,95.73736,R,ugm-3
14-01-2017,13:00,61.94716,R,ugm-3,64.46081,R,ugm-3,159.44513,R,ugm-3
14-01-2017,14:00,45.57634,R,ugm-3,52.41206,R,ugm-3,122.29481,R,ugm-3
14-01-2017,15:00,57.03591,R,ugm-3,69.48113,R,ugm-3,156.93497,R,ugm-3
14-01-2017,16:00,49.57082,R,ugm-3,61.59923,R,ugm-3,137.60677,R,ugm-3
14-01-2017,17:00,67.02211,R,ugm-3,71.38884,R,ugm-3,174.15464,R,ugm-3
14-01-2017,18:00,168.65211,R,ugm-3,106.48083,R,ugm-3,365.07713,R,ugm-3
14-01-2017,19:00,47.01697,R,ugm-3,71.38884,R,ugm-3,143.48053,R,ugm-3
14-01-2017,20:00,59.45879,R,ugm-3,76.25855,R,ugm-3,167.42742,R,ugm-3
14-01-2017,21:00,12.27811,R,ugm-3,61.54903,R,ugm-3,80.37520,R,ugm-3
14-01-2017,22:00,38.53689,R,ugm-3,69.93295,R,ugm-3,129.02203,R,ugm-3
14-01-2017,23:00,23.90139,R,ugm-3,59.13928,R,ugm-3,95.78756,R,ugm-3
14-01-2017,24:00,17.18935,R,ugm-3,46.18688,R,ugm-3,72.54352,R,ugm-3
15-01-2017,01:00,4.58799,R,ugm-3,24.96131,R,ugm-3,31.99613,R,ugm-3
15-01-2017,02:00,1.74788,R,ugm-3,13.05026,R,ugm-3,15.73031,R,ugm-3
15-01-2017,03:00,2.45781,R,ugm-3,17.11592,R,ugm-3,20.88450,R,ugm-3
15-01-2017,04:00,1.47462,R,ugm-3,11.94643,R,ugm-3,14.20748,R,ugm-3
15-01-2017,05:00,2.52391,R,ugm-3,4.96581,R,ugm-3,8.83575,R,ugm-3
15-01-2017,06:00,1.99880,R,ugm-3,4.46569,R,ugm-3,7.53047,R,ugm-3
15-01-2017,07:00,2.94955,R,ugm-3,5.36743,R,ugm-3,9.89002,R,ugm-3
15-01-2017,08:00,3.67049,R,ugm-3,7.62562,R,ugm-3,13.25363,R,ugm-3
15-01-2017,09:00,5.44010,R,ugm-3,12.89455,R,ugm-3,21.23592,R,ugm-3
15-01-2017,10:00,9.34041,R,ugm-3,26.49338,R,ugm-3,40.81514,R,ugm-3
15-01-2017,11:00,13.99377,R,ugm-3,25.98514,R,ugm-3,47.44195,R,ugm-3
15-01-2017,12:00,16.32092,R,ugm-3,26.28253,R,ugm-3,51.30759,R,ugm-3
15-01-2017,13:00,18.22181,R,ugm-3,27.28373,R,ugm-3,55.22344,R,ugm-3
15-01-2017,14:00,20.35219,R,ugm-3,33.95739,R,ugm-3,65.16366,R,ugm-3
15-01-2017,15:00,20.97460,R,ugm-3,34.20793,R,ugm-3,66.36853,R,ugm-3
15-01-2017,16:00,19.69611,R,ugm-3,32.60382,R,ugm-3,62.80411,R,ugm-3